Regional Weather Roundup
Issued by NWS Sterling, VA

Home | Current Version | Previous Version | Graphics & Text | Print | Product List | Glossary On
Versions: 1 2 3 4 5 6 7 8 9 10 11 12 13 14 15 16 17 18 19 20 21 22 23 24 25 26 27
000
ASUS41 KLWX 241411
RWRLWX

REGIONAL WEATHER ROUNDUP
NATIONAL WEATHER SERVICE BALTIMORE MD/WASHINGTON DC
1000 AM EDT SAT JUN 24 2017

Note: "FAIR" indicates few or no clouds below 12,000 feet
with no significant weather and/or obstructions to visibility.
 TC=TEMPERATURE CELSIUS

 * =Non NWS site. Station does not report precipitation (e.g. rain,
    snow, etc.), thunder, or fog.

DCZ001-MDZ009-015-VAZ040>042-051-053>054-241500-
WASHINGTON METRO

CITY           SKY/WX    TMP DP  RH WIND       PRES   REMARKS
WASHINGTON NAT PTSUNNY   80  66  62 W20G26    29.82R
DULLES         PTSUNNY   79  66  64 NW15G23   29.83R
ANDREWS AFB    MOSUNNY   80  65  59 W22G31    29.81R
FT BELVOIR     MOSUNNY   81  66  58 NW13      29.82R
QUANTICO       LGT RAIN  84  68  58 NW9G20    29.84R
COLLEGE PARK*  MOSUNNY   79  66  64 W10G16    29.81R
LEESBURG*      SUNNY     79  70  73 NW15G23   29.86R
MANASSAS*      MOSUNNY   81  66  60 NW17G23   29.83R
GAITHERSBURG*  MOSUNNY   78  66  66 NW16G22   29.84R

$$

MDZ006>007-011-014-241500-
BALTIMORE METRO

CITY           SKY/WX    TMP DP  RH WIND       PRES   REMARKS
BWI AIRPORT    MOSUNNY   80  67  64 NW18G26   29.79R
MD SCIENCE CTR   N/A     82  66  58 MISG      29.78R
MARTIN STATE   MOSUNNY   81  70  69 W17G26    29.78R
ANNAPOLIS      SUNNY     80  69  69 W14G22    29.79R
FORT MEADE*    SUNNY     77  66  69 W10G23    29.82R

$$

MDZ012-015-019>023-241500-
MARYLAND EASTERN SHORE

CITY           SKY/WX    TMP DP  RH WIND       PRES   REMARKS
OCEAN CITY     MOSUNNY   80  70  71 NW13G20   29.79R
SALISBURY      MOSUNNY   80  69  69 W18G26    29.80R
BAY BRIDGE AP* SUNNY     79  68  69 W15G21    29.79R
CAMBRIDGE*     MOSUNNY   81  68  65 W8G25     29.80R
EASTON*        MOSUNNY   81  68  65 NW15      29.83R

$$

MDZ017>025-241500-
SOUTHERN MARYLAND

CITY           SKY/WX    TMP DP  RH WIND       PRES   REMARKS
PATUXENT RIVER MOSUNNY   82  67  60 NW17G23   29.81R
ST INIGOES     SUNNY     81  69  67 W13G22    29.82R
LEONARDTOWN*   SUNNY     79  64  61 W15G21    29.84R

$$

MDZ003>005-241500-
NORTH CENTRAL MARYLAND

CITY           SKY/WX    TMP DP  RH WIND       PRES   REMARKS
FREDERICK*     MOSUNNY   81  63  54 W17G23    29.85R
HAGERSTOWN APT MOSUNNY   77  62  59 W15       29.83R
WESTMINSTER*   SUNNY     77  66  69 W17G24    29.82R

$$

MDZ501>502-241500-
WESTERN MARYLAND

CITY           SKY/WX    TMP DP  RH WIND       PRES   REMARKS
OAKLAND*       NOT AVBL
CUMBERLAND*    MOSUNNY   75  59  57 NW6G16    29.91R

$$

VAZ025>031-241500-
SHENANDOAH VALLEY

CITY           SKY/WX    TMP DP  RH WIND       PRES   REMARKS
WINCHESTER*    MOSUNNY   75  61  60 W16G22    29.87R
FRONT ROYAL*   MOSUNNY   77  59  53 W7G25     29.87R
LURAY*         PTSUNNY   77  63  61 W8G16     29.88R
NEW MARKET*    MOSUNNY   78  60  53 W5        29.88R
STAUNTON*      SUNNY     76  63  65 SW10      29.93R
WAYNESBORO*    SUNNY     73  64  73 W10G17    29.93R

$$

WVZ021-048>050-054>055-241500-
EASTERN WEST VIRGINIA PANHANDLE

CITY           SKY/WX    TMP DP  RH WIND       PRES   REMARKS
MARTINSBURG    MOSUNNY   79  62  56 W12       29.84R
PETERSBURG*    PTSUNNY   76  59  54 W13G20    29.93R

$$

VAZ036>039-050-241500-
CENTRAL FOOTHILLS

CITY           SKY/WX    TMP DP  RH WIND       PRES   REMARKS
CHARLOTTESVILL SUNNY     81  64  56 W3        29.87R
CULPEPER*      MOSUNNY   82  66  58 NW8       29.86R
ORANGE*        SUNNY     79  64  61 W12       29.85R
GORDONSVILLE*  SUNNY     81  65  57 W8        29.85R
WARRENTON*     MOSUNNY   84  62  47 W9        29.84R

$$

VAZ055>057-241500-
NORTH AND CENTRAL PIEDMONT

CITY           SKY/WX    TMP DP  RH WIND       PRES   REMARKS
FREDERICKSBRG* SUNNY     82  66  57 W12G21    29.83R
STAFFORD*      MOSUNNY   81  65  58 W10       29.88R

$$

NCZ024-NYZ072-PAZ021-071-VAZ022-071-241500-
OTHER REGIONAL OBSERVATIONS

CITY           SKY/WX    TMP DP  RH WIND       PRES   REMARKS
NEW YORK CITY  CLOUDY    74  71  91 W9        29.66R
PHILADELPHIA   MOSUNNY   79  68  69 W12G23    29.72R
PITTSBURGH     MOSUNNY   71  60  68 W7        29.89R
ROANOKE        MOSUNNY   77  64  64 W9G20     29.96S
RICHMOND       MOSUNNY   84  65  52 W13       29.86R
RALEIGH        MOSUNNY   83  73  72 W9        29.94S

$$

ANZ530>537-241500-
MARINE OBSERVATIONS

STATION/POSITION TIME  TEMP    WIND        PRES
                       AIR SEA DIR/SP/G
                 (UTC) (F)     (DEG/KT/KT) (MB)
THOMAS PT LIGHT  1400   78 77  290/ 20/ 21   N/A
BALT KEY BRIDGE  1348   78     280/ 18/ 22 1007.9R
COVE POINT       1348   78     310/ 12/ 18 1010.0R
LEWISETTA        1348   80 78  300/ 10/ 14 1009.9R
SOLOMONS ISLAND  1348   80 76  270/ 12/ 18   N/A
PINEY POINT      1348          320/ 15/ 17   N/A

$$





USA.gov is the U.S. government's official web portal to all federal, state and local government web resources and services.